Total_Precipitation_Accumulation
0.01 0.04 0.13 0.10 0.08 0.07 0.07 0.08 0.09 0.10 0.12 0.17 0.20 0.22 0.22 0.22 0.20 0.17 0.19 0.18 0.19 0.20 0.22 0.27 0.27 0.25 0.24 0.23 0.20 0.12 0.07 0.05 0.05 0.05 0.04 0.05 0.07 0.07 0.06 0.07 0.09 0.11 0.14
0.01 0.04 0.12 0.11 0.11 0.10 0.09 0.09 0.10 0.10 0.13 0.19 0.27 0.26 0.23 0.21 0.20 0.18 0.15 0.15 0.15 0.19 0.26 0.26 0.20 0.14 0.10 0.07 0.05 0.04 0.04 0.03 0.01 0.01 0.00 0.01 0.02 0.03 0.04 0.05 0.07 0.10 0.11
0.01 0.04 0.11 0.12 0.13 0.13 0.11 0.09 0.08 0.10 0.14 0.21 0.29 0.28 0.24 0.19 0.17 0.16 0.13 0.13 0.14 0.17 0.19 0.17 0.11 0.07 0.05 0.05 0.03 0.01 0.01 0.00 0.00 0.00 0.01 0.01 0.01 0.02 0.03 0.03 0.05 0.07 0.09
0.02 0.04 0.10 0.14 0.13 0.12 0.11 0.11 0.10 0.13 0.17 0.22 0.28 0.28 0.25 0.22 0.22 0.19 0.15 0.10 0.09 0.09 0.09 0.09 0.07 0.04 0.02 0.02 0.01 0.01 0.01 0.00 0.00 0.00 0.01 0.01 0.01 0.03 0.04 0.04 0.05 0.06 0.09
0.04 0.07 0.13 0.16 0.15 0.13 0.13 0.12 0.13 0.15 0.19 0.24 0.29 0.29 0.24 0.22 0.22 0.18 0.14 0.09 0.07 0.07 0.06 0.06 0.05 0.02 0.01 0.01 0.01 0.01 0.01 0.00 0.00 0.00 0.01 0.02 0.02 0.05 0.07 0.06 0.07 0.09 0.09
0.08 0.13 0.20 0.21 0.19 0.18 0.16 0.14 0.15 0.18 0.23 0.28 0.32 0.31 0.25 0.24 0.25 0.19 0.13 0.07 0.07 0.07 0.07 0.05 0.05 0.02 0.02 0.01 0.01 0.00 0.00 0.00 0.00 0.00 0.01 0.02 0.03 0.05 0.06 0.07 0.09 0.11 0.12
0.13 0.18 0.27 0.28 0.27 0.26 0.23 0.22 0.21 0.23 0.29 0.33 0.35 0.32 0.28 0.26 0.26 0.22 0.16 0.08 0.06 0.06 0.07 0.05 0.04 0.03 0.02 0.02 0.01 0.01 0.00 0.00 0.00 0.00 0.01 0.02 0.03 0.05 0.07 0.08 0.11 0.13 0.13
0.29 0.35 0.39 0.38 0.33 0.31 0.30 0.28 0.25 0.28 0.35 0.38 0.36 0.35 0.31 0.27 0.26 0.25 0.19 0.11 0.08 0.08 0.09 0.07 0.06 0.04 0.03 0.02 0.01 0.00 0.00 0.00 0.00 0.00 0.00 0.01 0.03 0.07 0.08 0.08 0.10 0.11 0.11
0.62 0.66 0.62 0.54 0.43 0.38 0.34 0.29 0.27 0.29 0.36 0.41 0.41 0.40 0.36 0.33 0.29 0.26 0.22 0.16 0.12 0.11 0.10 0.08 0.06 0.04 0.03 0.02 0.01 0.00 0.00 0.00 0.00 0.00 0.00 0.01 0.04 0.09 0.11 0.12 0.14 0.14 0.14
0.99 0.99 0.87 0.74 0.58 0.50 0.44 0.35 0.29 0.29 0.33 0.38 0.38 0.35 0.30 0.26 0.27 0.25 0.18 0.17 0.16 0.14 0.11 0.08 0.06 0.06 0.03 0.01 0.01 0.00 0.00 0.00 0.00 0.00 0.00 0.02 0.08 0.16 0.17 0.17 0.19 0.18 0.15
1.22 1.25 1.18 0.96 0.76 0.61 0.52 0.40 0.34 0.31 0.31 0.34 0.34 0.28 0.24 0.23 0.25 0.22 0.15 0.10 0.11 0.14 0.12 0.10 0.07 0.04 0.02 0.01 0.01 0.00 0.00 0.00 0.00 0.00 0.01 0.04 0.11 0.15 0.14 0.13 0.12 0.10 0.09
1.30 1.29 1.31 1.17 0.93 0.73 0.59 0.48 0.42 0.34 0.32 0.29 0.26 0.26 0.23 0.22 0.23 0.21 0.18 0.15 0.13 0.12 0.11 0.10 0.07 0.05 0.03 0.01 0.00 0.00 0.00 0.00 0.00 0.00 0.01 0.02 0.05 0.07 0.07 0.06 0.05 0.05 0.05
1.41 1.38 1.41 1.38 1.14 0.89 0.68 0.51 0.45 0.38 0.35 0.32 0.26 0.24 0.24 0.26 0.28 0.27 0.26 0.23 0.20 0.13 0.13 0.11 0.08 0.04 0.02 0.01 0.01 0.00 0.00 0.00 0.00 0.00 0.00 0.00 0.02 0.04 0.05 0.04 0.04 0.05 0.05
1.53 1.43 1.45 1.46 1.31 1.10 0.83 0.61 0.47 0.39 0.36 0.32 0.29 0.29 0.31 0.29 0.27 0.27 0.27 0.23 0.22 0.16 0.14 0.11 0.07 0.04 0.02 0.01 0.01 0.00 0.00 0.00 0.00 0.00 0.00 0.00 0.01 0.02 0.04 0.04 0.06 0.07 0.08
1.52 1.51 1.48 1.42 1.33 1.23 1.09 0.83 0.58 0.45 0.41 0.38 0.34 0.32 0.32 0.32 0.29 0.29 0.28 0.25 0.21 0.19 0.16 0.12 0.09 0.07 0.04 0.02 0.01 0.01 0.00 0.00 0.00 0.00 0.00 0.00 0.00 0.01 0.02 0.04 0.08 0.11 0.12
1.39 1.48 1.51 1.41 1.32 1.21 1.16 1.06 0.82 0.61 0.49 0.47 0.45 0.38 0.34 0.34 0.34 0.33 0.30 0.29 0.25 0.22 0.20 0.17 0.14 0.12 0.09 0.06 0.03 0.01 0.01 0.00 0.00 0.00 0.00 0.00 0.00 0.00 0.01 0.04 0.08 0.12 0.17
1.23 1.35 1.45 1.49 1.43 1.27 1.17 1.17 1.04 0.86 0.67 0.52 0.49 0.47 0.43 0.39 0.36 0.35 0.33 0.28 0.26 0.26 0.25 0.24 0.21 0.18 0.13 0.10 0.06 0.04 0.03 0.01 0.00 0.00 0.00 0.00 0.00 0.00 0.01 0.02 0.06 0.11 0.17
1.13 1.23 1.32 1.39 1.43 1.37 1.25 1.23 1.21 1.05 0.87 0.68 0.56 0.50 0.47 0.45 0.44 0.41 0.36 0.32 0.30 0.31 0.31 0.28 0.23 0.20 0.16 0.12 0.09 0.06 0.05 0.03 0.01 0.01 0.01 0.00 0.00 0.00 0.00 0.01 0.04 0.08 0.13
1.05 1.17 1.28 1.30 1.36 1.42 1.48 1.42 1.30 1.22 1.04 0.85 0.70 0.56 0.51 0.51 0.51 0.49 0.43 0.39 0.37 0.33 0.33 0.32 0.26 0.21 0.18 0.15 0.13 0.11 0.08 0.05 0.03 0.02 0.01 0.01 0.01 0.01 0.01 0.01 0.01 0.03 0.04
1.09 1.21 1.34 1.34 1.45 1.56 1.68 1.66 1.53 1.36 1.18 1.03 0.85 0.68 0.62 0.61 0.62 0.56 0.49 0.49 0.47 0.41 0.35 0.33 0.32 0.27 0.22 0.19 0.16 0.11 0.08 0.06 0.04 0.02 0.02 0.02 0.02 0.02 0.02 0.02 0.01 0.02 0.02
1.22 1.26 1.37 1.43 1.52 1.62 1.62 1.49 1.37 1.26 1.20 1.13 0.99 0.93 0.83 0.77 0.78 0.75 0.66 0.60 0.58 0.51 0.44 0.44 0.46 0.41 0.35 0.32 0.25 0.15 0.09 0.06 0.04 0.03 0.03 0.03 0.03 0.03 0.03 0.03 0.03 0.03 0.03
1.25 1.29 1.42 1.49 1.51 1.54 1.58 1.63 1.58 1.59 1.50 1.40 1.29 1.20 1.08 1.02 1.00 0.96 0.90 0.85 0.80 0.71 0.62 0.57 0.56 0.50 0.46 0.46 0.40 0.32 0.18 0.10 0.07 0.05 0.05 0.04 0.04 0.04 0.04 0.06 0.05 0.04 0.03
1.16 1.36 1.44 1.49 1.53 1.55 1.75 2.10 2.05 1.93 1.79 1.65 1.52 1.41 1.30 1.25 1.23 1.14 1.11 1.11 1.05 0.92 0.80 0.74 0.72 0.66 0.61 0.58 0.52 0.48 0.32 0.18 0.12 0.08 0.06 0.05 0.04 0.04 0.05 0.06 0.06 0.05 0.04
1.00 1.25 1.53 1.60 1.67 1.78 1.96 2.17 2.20 1.94 1.72 1.59 1.57 1.57 1.53 1.41 1.37 1.34 1.31 1.27 1.23 1.16 1.00 0.92 0.89 0.84 0.77 0.69 0.60 0.49 0.42 0.32 0.26 0.16 0.09 0.07 0.07 0.05 0.06 0.07 0.07 0.07 0.07
0.94 1.11 1.37 1.59 1.66 1.83 1.97 2.07 2.20 1.99 1.72 1.68 1.66 1.58 1.56 1.47 1.37 1.36 1.34 1.29 1.20 1.15 1.11 1.07 1.00 0.94 0.84 0.74 0.66 0.60 0.55 0.43 0.33 0.29 0.19 0.11 0.10 0.09 0.09 0.10 0.10 0.11 0.11
0.85 0.96 1.12 1.30 1.39 1.51 1.67 1.85 2.00 2.01 1.89 1.76 1.64 1.56 1.51 1.48 1.42 1.38 1.36 1.28 1.19 1.11 1.06 1.06 1.05 0.99 0.91 0.82 0.73 0.68 0.64 0.56 0.43 0.39 0.35 0.25 0.20 0.15 0.13 0.13 0.14 0.14 0.15